Location: Hohenfelde
(53.8441°N, 9.6220°E)
Time: 02:35:57
(UTC+00:00)

Cosmos 2369 - Visible Passes

Search period start: 21 October 2020 00:00
Search period end: 31 October 2020 00:00
Orbit: 839 x 856 km, 71.0° (Epoch: 20 October)

Date Brightness Start Highest point End Pass type
(mag) Time Alt. Az. Time Alt. Az. Time Alt. Az.
21 Oct 6.4 00:09:11 13° N 00:09:11 13° N 00:10:45 10° NNE visible
21 Oct 6.1 01:51:08 12° NNW 01:54:17 17° NNE 01:57:58 10° ENE visible
21 Oct 4.9 03:34:43 10° NNW 03:40:06 40° NE 03:45:26 10° ESE visible
21 Oct 3.9 05:18:58 10° NW 05:24:29 52° WSW 05:29:57 10° S visible
21 Oct 6.5 23:56:29 12° NNE 23:56:29 12° NNE 23:57:28 10° NNE visible
22 Oct 6.1 01:38:27 13° NNW 01:41:00 17° NNE 01:44:40 10° ENE visible
22 Oct 4.9 03:21:28 10° NNW 03:26:50 40° NE 03:32:08 10° ESE visible
22 Oct 3.9 05:05:42 10° NW 05:11:13 53° WSW 05:16:42 10° S visible
22 Oct 6.6 23:43:53 11° NNE 23:43:53 11° NNE 23:44:11 10° NNE visible
23 Oct 6.1 01:25:51 15° N 01:27:43 17° NNE 01:31:22 10° ENE visible
23 Oct 4.9 03:08:12 10° NNW 03:13:33 39° NE 03:18:51 10° ESE visible
23 Oct 3.8 04:52:26 10° NW 04:57:58 54° WSW 05:03:26 10° S visible
24 Oct 6.1 01:13:23 16° N 01:14:26 17° NNE 01:18:03 10° ENE visible
24 Oct 4.9 02:55:22 12° NNW 03:00:17 39° NE 03:05:34 10° ESE visible
24 Oct 3.8 04:39:10 10° NW 04:44:43 55° WSW 04:50:12 10° S visible
25 Oct 6.1 01:01:05 17° NNE 01:01:09 17° NNE 01:04:45 10° ENE visible
25 Oct 4.9 02:43:04 17° NNW 02:47:00 39° NE 02:52:17 10° ESE visible
25 Oct 3.8 04:25:53 10° NW 04:31:27 56° WSW 04:36:57 10° S visible
25 Oct 5.4 17:42:45 10° SE 17:44:13 15° SE 17:44:13 15° SE visible
25 Oct 5.4 19:24:21 10° SSW 19:26:16 22° SSW 19:26:16 22° SSW visible
26 Oct 6.2 00:48:58 16° NNE 00:48:58 16° NNE 00:51:26 10° ENE visible
26 Oct 5.0 02:30:58 24° N 02:33:44 38° NE 02:38:59 10° ESE visible
26 Oct 3.7 04:12:59 12° NW 04:18:11 56° WSW 04:23:41 10° S visible
26 Oct 5.0 17:29:33 10° SE 17:32:47 19° ESE 17:32:47 19° ESE visible
26 Oct 4.4 19:11:05 10° SSW 19:14:49 43° SSW 19:14:49 43° SSW visible
26 Oct 6.4 20:56:49 10° W 20:56:52 10° W 20:56:52 10° W visible
27 Oct 6.4 00:37:05 13° NE 00:37:05 13° NE 00:38:08 10° ENE visible
27 Oct 5.0 02:19:06 33° NNE 02:20:27 38° NE 02:25:42 10° ESE visible
27 Oct 3.7 04:01:08 20° NW 04:04:55 57° WSW 04:10:26 10° SSE visible
27 Oct 5.0 17:16:20 10° SE 17:20:10 19° E 17:21:09 18° E visible
27 Oct 3.6 18:57:49 10° SSW 19:03:10 78° S 19:03:10 78° S visible
27 Oct 6.0 20:43:32 10° W 20:45:12 17° W 20:45:12 17° W visible
28 Oct 5.0 02:07:28 37° NE 02:07:28 37° NE 02:12:25 10° ESE visible
28 Oct 3.7 03:49:30 36° NW 03:51:39 58° WSW 03:57:11 10° SSE visible
28 Oct 5.4 05:32:54 10° WNW 05:34:38 11° W 05:36:23 10° WSW visible
28 Oct 5.0 17:03:09 10° SE 17:06:55 18° E 17:09:18 14° ENE visible
28 Oct 3.6 18:44:34 10° SSW 18:50:18 84° ESE 18:51:18 62° NE visible
28 Oct 5.7 20:30:14 10° W 20:33:18 24° WNW 20:33:18 24° WNW visible
29 Oct 5.4 01:56:02 28° E 01:56:02 28° E 01:59:07 10° ESE visible
29 Oct 3.6 03:38:05 58° W 03:38:24 59° WSW 03:43:56 10° SSE visible
29 Oct 5.4 05:20:07 11° W 05:21:23 12° W 05:23:16 10° WSW visible
29 Oct 5.1 16:49:57 10° SE 16:53:40 18° E 16:57:13 11° ENE visible
29 Oct 3.6 18:31:18 10° SSW 18:37:02 83° ESE 18:39:12 40° NE visible
29 Oct 5.5 20:16:55 10° W 20:21:11 28° NW 20:21:11 28° NW visible
30 Oct 6.1 01:44:44 15° ESE 01:44:44 15° ESE 01:45:50 10° ESE visible
30 Oct 4.2 03:26:47 43° S 03:26:47 43° S 03:30:41 10° SSE visible
30 Oct 5.4 05:08:50 12° WSW 05:08:50 12° WSW 05:10:08 10° WSW visible
30 Oct 5.1 16:36:45 10° SE 16:40:25 18° E 16:44:05 10° ENE visible
30 Oct 3.6 18:18:02 10° SSW 18:23:46 82° ESE 18:26:53 28° NE visible
30 Oct 5.4 20:03:39 10° W 20:08:36 29° NW 20:08:51 29° NNW visible
